This is the latest recevied weather packets stored in our database for station/object WB9TLH-11. If no packets are shown the sender has not sent any weather packets the latest 10 day(s).
| Time | Temp. | Humidity | Pressure | Rain* | Wind** | Luminosity | Snow |
|---|---|---|---|---|---|---|---|
| 1777833657 | 16.11° C | 38% | 1017 hPa | 0 mm | - | - | - |
| 1777833357 | 16.67° C | 36% | 1017.2 hPa | 0 mm | - | - | - |
| 1777833057 | 16.67° C | 38% | 1017.3 hPa | 0 mm | - | - | - |
| 1777832757 | 16.11° C | 37% | 1017.5 hPa | 0 mm | - | - | - |
| 1777832457 | 16.11° C | 37% | 1017.7 hPa | 0 mm | - | - | - |
| 1777832157 | 16.11° C | 38% | 1017.7 hPa | 0 mm | - | - | - |
| 1777831857 | 16.11° C | 38% | 1017.9 hPa | 0 mm | - | - | - |
| 1777831557 | 15.56° C | 37% | 1017.8 hPa | 0 mm | - | - | - |
| 1777831257 | 15.56° C | 40% | 1018.1 hPa | 0 mm | - | - | - |
| 1777830957 | 15.56° C | 41% | 1018.3 hPa | 0 mm | - | - | - |
| 1777830657 | 15.56° C | 37% | 1018.3 hPa | 0 mm | - | - | - |
| 1777830357 | 15.56° C | 37% | 1018.4 hPa | 0 mm | - | - | - |
| 1777830057 | 15.56° C | 37% | 1018.6 hPa | 0 mm | - | - | - |
| 1777829757 | 15.56° C | 38% | 1018.6 hPa | 0 mm | - | - | - |
| 1777829457 | 15.56° C | 38% | 1018.8 hPa | 0 mm | - | - | - |
| 1777829157 | 15.56° C | 38% | 1018.6 hPa | 0 mm | - | - | - |
| 1777828857 | 15.56° C | 36% | 1018.7 hPa | 0 mm | - | - | - |
| 1777828557 | 15.56° C | 42% | 1018.7 hPa | 0 mm | - | - | - |
| 1777828257 | 15.56° C | 40% | 1018.7 hPa | 0 mm | - | - | - |
| 1777827957 | 15° C | 39% | 1018.8 hPa | 0 mm | - | - | - |
| 1777827657 | 15° C | 40% | 1019 hPa | 0 mm | - | - | - |
| 1777827357 | 15° C | 37% | 1019.1 hPa | 0 mm | - | - | - |
| 1777827057 | 15.56° C | 40% | 1019.2 hPa | 0 mm | - | - | - |
| 1777826757 | 15° C | 39% | 1019.2 hPa | 0 mm | - | - | - |
| 1777826457 | 15° C | 39% | 1019.3 hPa | 0 mm | - | - | - |
* Rain latest hour (hover to see other rain measurements)
** Current wind speed in m/s (hover to see current wind gust speed)